This demonstration page uses our WeatherBlox Daily Observations layout. Learn more.

Left ArrowRight Arrow

Hourly Observations for January 26, 2018

Temp ( °F °C ) Dew Point ( °F °C ) Humidity (%) Winds ( mph kmh ) Pressure ( in mb ) Visibility ( mi km ) Precip ( " mm )
12:53 am 00:53 Clear 41 5 38 3.3 89 89 SE 14 22 30.04 1017 10 16 0.00 0.00
1:53 am 01:53 Clear 40 4.4 39 3.9 97 97 SE 16 26 30.02 1017 10 16 0.00 0.00
2:53 am 02:53 Clear 39 3.9 38 3.3 96 96 SE 10 17 30.03 1017 7 11 0.00 0.00
3:53 am 03:53 Clear with Mist and Fog 39 3.9 38 3.3 96 96 SE 12 19 30.01 1016 6 10 0.00 0.00
4:48 am 04:48 Mostly Clear with Mist and Fog 37 3 37 3 100 100 SE 10 17 30.12 1020 4 6 0.00 0.00
4:53 am 04:53 Mostly Clear with Mist and Fog 38 3.3 38 3.3 100 100 SE 10 17 30.00 1016 3 5 0.00 0.00
5:53 am 05:53 Partly Cloudy with Mist and Fog 38 3.3 38 3.3 100 100 SE 12 19 30.00 1016 3 5 0.00 0.00
6:43 am 06:43 Mostly Clear with Mist and Fog 37 2.8 37 2.8 100 100 SE 9 15 30.15 1021 3 4 0.00 0.00
6:53 am 06:53 Clear with Mist and Fog 37 2.8 37 2.8 100 100 SE 9 15 30.02 1017 3 4 0.00 0.00
7:22 am 07:22 Partly Cloudy with Mist and Fog 37 2.8 37 2.8 100 100 SE 7 11 30.15 1021 2 3 0.00 0.00
7:35 am 07:35 Partly Cloudy with Mist and Fog 37 2.8 37 2.8 100 100 SE 8 13 30.15 1021 2 2 0.00 0.00
7:42 am 07:42 Mostly Cloudy with Mist and Fog 37 2.8 37 2.8 100 100 SE 7 11 30.15 1021 2 2 0.00 0.00
7:53 am 07:53 Mostly Cloudy with Mist and Fog 38 3.3 38 3.3 100 100 SE 8 13 30.04 1017 1 1 0.00 0.00
8:07 am 08:07 Mostly Cloudy with Fog 39 3.9 39 3.9 100 100 SE 10 17 30.12 1020 0 0 0.00 0.00
8:53 am 08:53 Mostly Cloudy with Fog 41 5 41 5 100 100 SE 10 17 30.04 1017 1 1 0.00 0.00
9:05 am 09:05 Mostly Cloudy with Mist and Fog 42 5.6 42 5.6 100 100 SE 13 20 30.09 1019 2 3 0.00 0.00
9:13 am 09:13 Mostly Cloudy with Mist and Fog 42 5.6 42 5.6 100 100 SE 12 19 30.09 1019 5 8 0.00 0.00
9:27 am 09:27 Partly Cloudy 43 6.1 43 6.1 100 100 SE 10 17 30.09 1019 7 11 0.00 0.00
9:53 am 09:53 Sunny 45 7.2 43 6.1 93 93 SE 12 19 30.05 1018 10 16 0.00 0.00
10:53 am 10:53 Sunny 52 11.1 41 5 66 66 SSE 10 17 30.05 1018 10 16 0.00 0.00
11:53 am 11:53 Sunny 57 13.9 38 3.3 49 49 SE 8 13 30.04 1017 10 16 0.00 0.00
12:53 pm 12:53 Sunny 62 16.7 35 1.7 37 37 S 10 17 30.00 1016 10 16 0.00 0.00
1:53 pm 13:53 Sunny 67 19.4 29 -1.7 24 24 SSW 10 17 29.96 1014 10 16 0.00 0.00
2:53 pm 14:53 Sunny 68 20 26 -3.3 21 21 S 8 13 29.92 1013 10 16 0.00 0.00
3:53 pm 15:53 Sunny 71 21.7 24 -4.4 17 17 VRB 5 7 29.91 1013 10 16 0.00 0.00
4:53 pm 16:53 Sunny 70 21.1 15 -9.4 12 12 W 7 11 29.91 1013 10 16 0.00 0.00
5:53 pm 17:53 Sunny 65 18.3 18 -7.8 16 16 Calm 29.93 1014 10 16 0.00 0.00
6:53 pm 18:53 Clear 66 18.9 10 -12.2 11 11 W 5 7 29.96 1015 10 16 0.00 0.00
7:53 pm 19:53 Clear 57 13.9 10 -12.2 15 15 Calm 29.99 1016 10 16 0.00 0.00
8:53 pm 20:53 Clear 55 12.8 42 5.6 62 62 ESE 6 9 30.03 1017 10 16 0.00 0.00
9:53 pm 21:53 Clear 50 10 43 6.1 77 77 SE 10 17 30.04 1017 10 16 0.00 0.00
10:53 pm 22:53 Clear 47 8.3 43 6.1 86 86 ESE 7 11 30.06 1018 10 16 0.00 0.00
11:53 pm 23:53 Clear 44 6.7 43 6.1 96 96 ESE 6 9 30.07 1018 10 16 0.00 0.00

Powered by AerisWeather